Home > Weather > Abu Dhabi > Past weeks

Flag for United Arab Emirates Past Weather in Abu Dhabi, Abu Dhabi, United Arab Emirates — Yesterday and Last 2 Weeks

Now
86 °F

Clear.


Feels Like: 97 °F
Forecast: 90 / 101 °F
Wind: 6 mph from Southwest

Location: Abu Dhabi Bateen Airport

Current Time: May 30, 2016 at 1:19:41 AM

Latest Report: May 30, 2016 at 1:00 AM


Visibility: 10 mi

Pressure: 29.59 "Hg

Humidity: 75%

Dew Point: 77 °F

Location of Abu DhabiLocation

Past Weather in Abu Dhabi — Graph

°F

Abu Dhabi Temperature Yesterday

Maximum temperature yesterday: 104 °F (at 3:00 PM)
Minimum temperature yesterday: 82 °F (at 5:00 AM)
Average temperature yesterday: 93 °F

High & Low Weather Summary for the Past Weeks

 TemperatureHumidityPressure
High109 °F (May 17, 1:00 PM)89% (May 16, 3:00 AM)29.77 "Hg (May 16, 3:00 AM)
Low79 °F (May 15, 5:00 AM)10% (May 19, 11:00 AM)29.53 "Hg (May 20, 5:00 PM)
Average91 °F48%29.64 "Hg
* Reported May 15 12:00 AM — May 30 12:00 AM, Abu Dhabi, Weather by CustomWeather, © 2016

Note: Actual official high and low records may vary slightly from our data, if they occured in-between our weather recording intervals... More about our weather records

Advertising

Abu Dhabi Weather History for the Previous 24 Hours

Scroll right to see more
 ConditionsComfort  
Time TempWeatherWind HumidityBarometerVisibility
12:00 AM
Mon, May 30
88 °FPassing clouds.3 mph75%29.59 "HgN/A
11:00 PM
Sun, May 29
88 °FClear.5 mph70%29.62 "Hg10 mi
10:00 PM90 °FClear.6 mph67%29.62 "Hg10 mi
9:00 PM91 °FPassing clouds.3 mph49%29.62 "HgN/A
8:00 PM95 °FClear.2 mph34%29.59 "Hg10 mi
7:00 PM100 °FPassing clouds.5 mph15%29.59 "HgN/A
6:00 PM102 °FPassing clouds.7 mph14%29.59 "HgN/A
5:00 PM104 °FPassing clouds.8 mph16%29.59 "HgN/A
4:00 PM104 °FPassing clouds.7 mph15%29.59 "HgN/A
3:00 PM104 °FSunny.6 mph16%29.62 "Hg10 mi
2:00 PM102 °FSunny.10 mph14%29.65 "Hg10 mi
1:00 PM102 °FPassing clouds.8 mph20%29.65 "HgN/A
12:00 PM100 °FSunny.6 mph18%29.68 "Hg10 mi
11:00 AM99 °FPassing clouds.5 mph24%29.68 "HgN/A
10:00 AM95 °FPassing clouds.6 mph23%29.68 "HgN/A
9:00 AM90 °FPassing clouds.5 mph38%29.68 "HgN/A
8:00 AM88 °FPassing clouds.5 mph40%29.65 "HgN/A
7:00 AM84 °FSunny.2 mph43%29.62 "Hg10 mi
6:00 AM82 °FSunny.2 mph58%29.62 "Hg10 mi
5:00 AM82 °FClear.2 mph66%29.59 "Hg10 mi
4:00 AM84 °FClear.5 mph70%29.59 "Hg10 mi
3:00 AM84 °FClear.3 mph66%29.59 "Hg10 mi
2:00 AM84 °FClear.2 mph84%29.59 "Hg10 mi
1:00 AM86 °FClear.2 mph79%29.62 "Hg10 mi
Weather by CustomWeather, © 2016

See weather overviewHow to use our weather pages